Location: Unspecified
(44.0704°N, 88.6889°W)
Time: 17:18:58
(UTC+02:00)

Resurs 1-4 Rocket - Visible Passes

Search period start: 20 August 2018 00:00
Search period end: 30 August 2018 00:00
Orbit: 799 x 815 km, 98.5° (Epoch: 19 August)

Date Brightness Start Highest point End Pass type
(mag) Time Alt. Az. Time Alt. Az. Time Alt. Az.
20 Aug 4.5 08:26:38 10° ENE 08:28:30 12° E 08:28:30 12° E visible
20 Aug 1.9 10:04:04 10° NNE 10:09:21 85° WNW 10:09:35 81° SW visible
20 Aug 4.1 11:46:03 10° NNW 11:48:22 13° WNW 11:50:39 10° W visible
21 Aug 2.4 09:39:32 10° NNE 09:44:37 59° E 09:44:37 59° E visible
21 Aug 3.6 11:20:21 10° NNW 11:24:08 20° WNW 11:25:41 18° W visible
22 Aug 3.2 09:15:13 10° NNE 09:19:38 35° E 09:19:38 35° E visible
22 Aug 3.0 10:55:12 10° N 10:59:47 32° WNW 11:00:43 30° W visible
23 Aug 3.9 08:51:14 10° NE 08:54:40 22° E 08:54:40 22° E visible
23 Aug 2.3 10:30:17 10° N 10:35:22 50° WNW 10:35:45 49° W visible
24 Aug 4.5 08:27:58 10° ENE 08:29:42 13° E 08:29:42 13° E visible
24 Aug 2.0 10:05:34 10° NNE 10:10:46 82° NW 10:10:46 82° NW visible
24 Aug 4.1 11:47:41 10° NNW 11:49:51 13° NW 11:51:50 10° W visible
25 Aug 2.5 09:41:02 10° NNE 09:45:48 59° ENE 09:45:48 59° ENE visible
25 Aug 3.6 11:21:55 10° NNW 11:25:37 20° WNW 11:26:52 18° W visible
26 Aug 3.3 09:16:42 10° NNE 09:20:49 35° ENE 09:20:49 35° ENE visible
26 Aug 3.0 10:56:44 10° N 11:01:17 31° WNW 11:01:54 30° WNW visible
27 Aug 4.0 08:52:41 10° NE 08:55:51 22° ENE 08:55:51 22° ENE visible
27 Aug 2.4 10:31:49 10° N 10:36:52 49° WNW 10:36:55 49° WNW visible
28 Aug 4.5 08:29:19 10° ENE 08:30:52 13° ENE 08:30:52 13° ENE visible
28 Aug 2.1 10:07:05 10° NNE 10:11:57 73° NNW 10:11:57 73° NNW visible
28 Aug 4.1 11:49:19 10° NNW 11:51:19 12° NW 11:53:01 11° WNW visible
29 Aug 2.6 09:42:32 10° NNE 09:46:58 56° ENE 09:46:58 56° ENE visible
29 Aug 3.6 11:23:28 10° NNW 11:27:06 19° WNW 11:28:03 18° WNW visible
